Time,TemperatureF,DewpointF,PressureIn,WindDirection,WindDirectionDegrees,WindSpeedMPH,WindSpeedGustMPH,Humidity,HourlyPrecipIn,Conditions,Clouds,dailyrainin,SoftwareType,DateUTC
2013-04-18 00:03:00,46.0,35.0,30.30,NE,34,0.0,1.0,65,0.00,,,0.00,,2013-04-18 04:03:00,
2013-04-18 00:13:00,46.0,35.0,30.30,NE,34,0.0,1.0,65,0.00,,,0.00,,2013-04-18 04:13:00,
2013-04-18 00:23:00,45.0,35.0,30.32,NE,34,0.0,1.0,68,0.00,,,0.00,,2013-04-18 04:23:00,
2013-04-18 00:33:00,45.0,36.0,30.32,NE,34,0.0,1.0,70,0.00,,,0.00,,2013-04-18 04:33:00,
2013-04-18 00:43:00,44.0,35.0,30.33,NE,34,0.0,1.0,71,0.00,,,0.00,,2013-04-18 04:43:00,
2013-04-18 00:53:00,44.0,35.0,30.33,NE,34,0.0,1.0,71,0.00,,,0.00,,2013-04-18 04:53:00,
2013-04-18 01:02:00,43.0,35.0,30.34,NE,34,0.0,1.0,73,0.00,,,0.00,,2013-04-18 05:02:00,
2013-04-18 01:12:00,43.0,35.0,30.34,NE,34,0.0,2.0,74,0.00,,,0.00,,2013-04-18 05:12:00,
2013-04-18 01:22:00,43.0,35.0,30.34,NE,34,0.0,2.0,74,0.00,,,0.00,,2013-04-18 05:22:00,
2013-04-18 01:33:00,42.0,35.0,30.33,NE,34,0.0,1.0,76,0.00,,,0.00,,2013-04-18 05:33:00,
2013-04-18 01:42:00,41.0,35.0,30.33,NE,34,0.0,1.0,79,0.00,,,0.00,,2013-04-18 05:42:00,
2013-04-18 01:52:00,41.0,35.0,30.33,NE,34,0.0,1.0,79,0.00,,,0.00,,2013-04-18 05:52:00,
2013-04-18 02:02:00,41.0,36.0,30.33,NE,34,0.0,0.0,81,0.00,,,0.00,,2013-04-18 06:02:00,
2013-04-18 02:12:00,41.0,36.0,30.33,NE,34,0.0,0.0,81,0.00,,,0.00,,2013-04-18 06:12:00,
2013-04-18 02:22:00,41.0,36.0,30.32,NE,34,0.0,1.0,83,0.00,,,0.00,,2013-04-18 06:22:00,
2013-04-18 02:32:00,41.0,36.0,30.33,NE,34,0.0,1.0,83,0.00,,,0.00,,2013-04-18 06:32:00,
2013-04-18 02:42:00,40.0,35.0,30.32,NE,34,0.0,1.0,83,0.00,,,0.00,,2013-04-18 06:42:00,
2013-04-18 02:52:00,40.0,35.0,30.32,NE,34,0.0,1.0,83,0.00,,,0.00,,2013-04-18 06:52:00,
2013-04-18 03:02:00,39.0,35.0,30.31,NE,34,0.0,1.0,84,0.00,,,0.00,,2013-04-18 07:02:00,
2013-04-18 03:12:00,38.0,33.0,30.32,NE,34,0.0,1.0,82,0.00,,,0.00,,2013-04-18 07:12:00,
2013-04-18 03:22:00,38.0,33.0,30.32,NE,34,0.0,1.0,82,0.00,,,0.00,,2013-04-18 07:22:00,
2013-04-18 03:32:00,38.0,33.0,30.33,NE,34,0.0,0.0,83,0.00,,,0.00,,2013-04-18 07:32:00,
2013-04-18 03:42:00,38.0,33.0,30.35,NE,34,0.0,1.0,83,0.00,,,0.00,,2013-04-18 07:42:00,
2013-04-18 03:52:00,38.0,33.0,30.35,NE,34,0.0,1.0,83,0.00,,,0.00,,2013-04-18 07:52:00,
2013-04-18 04:02:00,38.0,34.0,30.36,NE,34,0.0,1.0,84,0.00,,,0.00,,2013-04-18 08:02:00,
2013-04-18 04:12:00,37.0,32.0,30.36,NE,34,0.0,1.0,83,0.00,,,0.00,,2013-04-18 08:12:00,
2013-04-18 04:22:00,37.0,32.0,30.36,NE,34,0.0,1.0,83,0.00,,,0.00,,2013-04-18 08:22:00,
2013-04-18 04:32:00,37.0,32.0,30.36,NE,34,0.0,1.0,83,0.00,,,0.00,,2013-04-18 08:32:00,
2013-04-18 04:42:00,37.0,32.0,30.36,NE,34,0.0,1.0,81,0.00,,,0.00,,2013-04-18 08:42:00,
2013-04-18 04:52:00,37.0,32.0,30.36,NE,34,0.0,1.0,81,0.00,,,0.00,,2013-04-18 08:52:00,
2013-04-18 05:02:00,37.0,32.0,30.36,NE,34,0.0,1.0,81,0.00,,,0.00,,2013-04-18 09:02:00,
2013-04-18 05:12:00,37.0,31.0,30.36,NE,34,0.0,1.0,79,0.00,,,0.00,,2013-04-18 09:12:00,
2013-04-18 05:22:00,37.0,31.0,30.36,NE,34,0.0,1.0,79,0.00,,,0.00,,2013-04-18 09:22:00,
2013-04-18 05:33:00,37.0,31.0,30.36,NE,34,0.0,1.0,79,0.00,,,0.00,,2013-04-18 09:33:00,
2013-04-18 05:43:00,37.0,31.0,30.37,NE,34,0.0,1.0,79,0.00,,,0.00,,2013-04-18 09:43:00,
2013-04-18 05:53:00,37.0,31.0,30.37,NE,34,0.0,1.0,79,0.00,,,0.00,,2013-04-18 09:53:00,
2013-04-18 06:03:00,37.0,31.0,30.37,NE,34,0.0,1.0,79,0.00,,,0.00,,2013-04-18 10:03:00,
2013-04-18 06:12:00,37.0,31.0,30.37,NE,34,0.0,1.0,79,0.00,,,0.00,,2013-04-18 10:12:00,
2013-04-18 06:23:00,37.0,32.0,30.37,NE,34,0.0,1.0,83,0.00,,,0.00,,2013-04-18 10:23:00,
2013-04-18 06:33:00,37.0,33.0,30.37,NE,34,0.0,1.0,86,0.00,,,0.00,,2013-04-18 10:33:00,
2013-04-18 06:42:00,37.0,33.0,30.37,NE,34,0.0,1.0,86,0.00,,,0.00,,2013-04-18 10:42:00,
2013-04-18 06:52:00,37.0,33.0,30.37,NE,34,0.0,0.0,86,0.00,,,0.00,,2013-04-18 10:52:00,
2013-04-18 07:03:00,38.0,34.0,30.36,NE,34,0.0,1.0,85,0.00,,,0.00,,2013-04-18 11:03:00,
2013-04-18 07:12:00,39.0,35.0,30.37,NE,34,0.0,1.0,84,0.00,,,0.00,,2013-04-18 11:12:00,
2013-04-18 07:22:00,39.0,35.0,30.37,NE,34,0.0,1.0,84,0.00,,,0.00,,2013-04-18 11:22:00,
2013-04-18 07:32:00,40.0,35.0,30.39,NE,34,0.0,1.0,81,0.00,,,0.00,,2013-04-18 11:32:00,
2013-04-18 07:42:00,40.0,35.0,30.39,NE,34,0.0,1.0,81,0.00,,,0.00,,2013-04-18 11:42:00,
2013-04-18 07:52:00,43.0,36.0,30.39,NE,34,0.0,0.0,75,0.00,,,0.00,,2013-04-18 11:52:00,
2013-04-18 08:02:00,44.0,35.0,30.39,NE,34,0.0,1.0,71,0.00,,,0.00,,2013-04-18 12:02:00,
2013-04-18 08:12:00,44.0,35.0,30.39,NE,34,0.0,1.0,71,0.00,,,0.00,,2013-04-18 12:12:00,
2013-04-18 08:22:00,46.0,36.0,30.39,NE,34,0.0,1.0,67,0.00,,,0.00,,2013-04-18 12:22:00,
2013-04-18 08:32:00,49.0,35.0,30.40,East,92,0.0,3.0,59,0.00,,,0.00,,2013-04-18 12:32:00,
2013-04-18 08:42:00,49.0,35.0,30.40,East,92,0.0,3.0,59,0.00,,,0.00,,2013-04-18 12:42:00,
2013-04-18 08:52:00,51.0,35.0,30.39,ESE,105,0.0,3.0,55,0.00,,,0.00,,2013-04-18 12:52:00,
2013-04-18 09:03:00,52.0,35.0,30.40,East,99,0.0,4.0,53,0.00,,,0.00,,2013-04-18 13:03:00,
2013-04-18 09:12:00,52.0,35.0,30.40,East,99,0.0,4.0,53,0.00,,,0.00,,2013-04-18 13:12:00,
2013-04-18 09:22:00,52.0,34.0,30.39,East,87,0.0,5.0,51,0.00,,,0.00,,2013-04-18 13:22:00,
2013-04-18 09:32:00,52.0,35.0,30.38,NNW,334,0.0,6.0,53,0.00,,,0.00,,2013-04-18 13:32:00,
2013-04-18 09:42:00,53.0,34.0,30.37,South,178,3.0,7.0,48,0.00,,,0.00,,2013-04-18 13:42:00,
2013-04-18 09:53:00,53.0,34.0,30.37,South,178,3.0,7.0,48,0.00,,,0.00,,2013-04-18 13:53:00,
2013-04-18 10:02:00,54.0,35.0,30.37,SSE,162,0.0,6.0,49,0.00,,,0.00,,2013-04-18 14:02:00,
2013-04-18 10:12:00,55.0,32.0,30.37,NW,310,2.0,9.0,42,0.00,,,0.00,,2013-04-18 14:12:00,
2013-04-18 10:22:00,55.0,32.0,30.37,NW,310,2.0,9.0,42,0.00,,,0.00,,2013-04-18 14:22:00,
2013-04-18 10:32:00,56.0,32.0,30.37,South,170,1.0,6.0,40,0.00,,,0.00,,2013-04-18 14:32:00,
2013-04-18 10:43:00,56.0,32.0,30.37,South,170,1.0,6.0,40,0.00,,,0.00,,2013-04-18 14:43:00,
2013-04-18 10:52:00,56.0,31.0,30.37,ENE,62,0.0,8.0,39,0.00,,,0.00,,2013-04-18 14:52:00,
2013-04-18 11:03:00,57.0,32.0,30.37,SW,234,1.0,7.0,38,0.00,,,0.00,,2013-04-18 15:03:00,
2013-04-18 11:12:00,57.0,32.0,30.37,SW,234,1.0,7.0,38,0.00,,,0.00,,2013-04-18 15:12:00,
2013-04-18 11:22:00,57.0,32.0,30.37,SSW,195,1.0,6.0,38,0.00,,,0.00,,2013-04-18 15:22:00,
2013-04-18 11:33:00,57.0,32.0,30.37,SSW,202,1.0,8.0,38,0.00,,,0.00,,2013-04-18 15:33:00,
2013-04-18 11:43:00,57.0,32.0,30.37,SSW,211,3.0,7.0,38,0.00,,,0.00,,2013-04-18 15:43:00,
2013-04-18 11:53:00,57.0,32.0,30.37,SSW,211,3.0,7.0,38,0.00,,,0.00,,2013-04-18 15:53:00,
2013-04-18 12:03:00,58.0,33.0,30.36,SW,219,2.0,9.0,38,0.00,,,0.00,,2013-04-18 16:03:00,
2013-04-18 12:13:00,59.0,33.0,30.35,SSW,198,0.0,7.0,38,0.00,,,0.00,,2013-04-18 16:13:00,
2013-04-18 12:23:00,59.0,33.0,30.35,SSW,198,0.0,7.0,38,0.00,,,0.00,,2013-04-18 16:23:00,
2013-04-18 12:33:00,60.0,33.0,30.35,SSW,201,4.0,7.0,36,0.00,,,0.00,,2013-04-18 16:33:00,
2013-04-18 12:43:00,59.0,34.0,30.34,South,179,0.0,12.0,39,0.00,,,0.00,,2013-04-18 16:43:00,
2013-04-18 12:53:00,59.0,34.0,30.34,South,179,0.0,12.0,39,0.00,,,0.00,,2013-04-18 16:53:00,
2013-04-18 13:03:00,61.0,33.0,30.33,SSW,199,4.0,12.0,35,0.00,,,0.00,,2013-04-18 17:03:00,
2013-04-18 13:12:00,61.0,32.0,30.32,South,172,4.0,12.0,34,0.00,,,0.00,,2013-04-18 17:12:00,
2013-04-18 13:22:00,61.0,32.0,30.32,South,172,4.0,12.0,34,0.00,,,0.00,,2013-04-18 17:22:00,
2013-04-18 13:33:00,61.0,33.0,30.31,SSW,193,1.0,10.0,35,0.00,,,0.00,,2013-04-18 17:33:00,
2013-04-18 13:42:00,61.0,32.0,30.30,SSW,193,2.0,9.0,34,0.00,,,0.00,,2013-04-18 17:42:00,
2013-04-18 13:52:00,61.0,32.0,30.30,SSW,193,2.0,9.0,34,0.00,,,0.00,,2013-04-18 17:52:00,
2013-04-18 14:03:00,61.0,33.0,30.29,SSW,197,1.0,7.0,35,0.00,,,0.00,,2013-04-18 18:03:00,
2013-04-18 14:12:00,61.0,32.0,30.30,South,184,5.0,10.0,34,0.00,,,0.00,,2013-04-18 18:12:00,
2013-04-18 14:23:00,61.0,32.0,30.30,South,184,5.0,10.0,34,0.00,,,0.00,,2013-04-18 18:23:00,
2013-04-18 14:32:00,61.0,32.0,30.29,SSW,193,2.0,8.0,34,0.00,,,0.00,,2013-04-18 18:32:00,
2013-04-18 14:42:00,61.0,32.0,30.29,SSW,201,2.0,8.0,34,0.00,,,0.00,,2013-04-18 18:42:00,
2013-04-18 14:53:00,61.0,32.0,30.29,SSW,201,2.0,8.0,34,0.00,,,0.00,,2013-04-18 18:53:00,
2013-04-18 15:02:00,61.0,33.0,30.29,South,180,1.0,8.0,35,0.00,,,0.00,,2013-04-18 19:02:00,
2013-04-18 15:12:00,61.0,33.0,30.29,South,180,1.0,8.0,35,0.00,,,0.00,,2013-04-18 19:12:00,
2013-04-18 15:22:00,60.0,33.0,30.29,South,189,1.0,16.0,36,0.00,,,0.00,,2013-04-18 19:22:00,
2013-04-18 15:32:00,60.0,32.0,30.28,South,183,3.0,11.0,34,0.00,,,0.00,,2013-04-18 19:32:00,
2013-04-18 15:42:00,60.0,32.0,30.28,South,183,3.0,11.0,34,0.00,,,0.00,,2013-04-18 19:42:00,
2013-04-18 15:53:00,60.0,32.0,30.27,SSW,194,2.0,7.0,34,0.00,,,0.00,,2013-04-18 19:53:00,
2013-04-18 16:02:00,59.0,31.0,30.27,South,173,2.0,12.0,34,0.00,,,0.00,,2013-04-18 20:02:00,
2013-04-18 16:12:00,59.0,31.0,30.27,South,173,2.0,12.0,34,0.00,,,0.00,,2013-04-18 20:12:00,
2013-04-18 16:22:00,59.0,31.0,30.27,SSW,196,3.0,12.0,34,0.00,,,0.00,,2013-04-18 20:22:00,
2013-04-18 16:32:00,59.0,32.0,30.27,SSW,197,2.0,9.0,36,0.00,,,0.00,,2013-04-18 20:32:00,
2013-04-18 16:42:00,58.0,31.0,30.26,West,272,2.0,9.0,35,0.00,,,0.00,,2013-04-18 20:42:00,
2013-04-18 16:52:00,58.0,31.0,30.26,West,272,2.0,9.0,35,0.00,,,0.00,,2013-04-18 20:52:00,
2013-04-18 17:02:00,57.0,29.0,30.26,South,178,2.0,12.0,34,0.00,,,0.00,,2013-04-18 21:02:00,
2013-04-18 17:12:00,57.0,29.0,30.25,South,189,1.0,10.0,34,0.00,,,0.00,,2013-04-18 21:12:00,
2013-04-18 17:22:00,57.0,29.0,30.25,South,189,1.0,10.0,34,0.00,,,0.00,,2013-04-18 21:22:00,
2013-04-18 17:33:00,56.0,27.0,30.25,NE,43,3.0,8.0,32,0.00,,,0.00,,2013-04-18 21:33:00,
2013-04-18 17:43:00,56.0,27.0,30.25,South,174,1.0,8.0,33,0.00,,,0.00,,2013-04-18 21:43:00,
2013-04-18 17:53:00,56.0,27.0,30.25,South,174,1.0,8.0,33,0.00,,,0.00,,2013-04-18 21:53:00,
2013-04-18 18:02:00,56.0,28.0,30.24,SSW,197,1.0,11.0,34,0.00,,,0.00,,2013-04-18 22:02:00,
2013-04-18 18:13:00,55.0,28.0,30.25,WSW,257,2.0,9.0,35,0.00,,,0.00,,2013-04-18 22:13:00,
2013-04-18 18:23:00,55.0,28.0,30.25,WSW,257,2.0,9.0,35,0.00,,,0.00,,2013-04-18 22:23:00,
2013-04-18 18:32:00,55.0,29.0,30.23,South,188,0.0,8.0,37,0.00,,,0.00,,2013-04-18 22:32:00,
2013-04-18 18:42:00,55.0,29.0,30.23,South,182,1.0,7.0,37,0.00,,,0.00,,2013-04-18 22:42:00,
2013-04-18 18:52:00,55.0,29.0,30.23,South,182,1.0,7.0,37,0.00,,,0.00,,2013-04-18 22:52:00,
2013-04-18 19:04:00,55.0,29.0,30.22,ESE,110,0.0,7.0,37,0.00,,,0.00,,2013-04-18 23:04:00,
2013-04-18 19:12:00,54.0,30.0,30.22,SSE,165,1.0,6.0,39,0.00,,,0.00,,2013-04-18 23:12:00,
2013-04-18 19:21:00,54.0,30.0,30.22,SSE,165,1.0,6.0,39,0.00,,,0.00,,2013-04-18 23:21:00,
2013-04-18 19:32:00,54.0,34.0,30.22,SSE,158,2.0,12.0,46,0.00,,,0.00,,2013-04-18 23:32:00,
2013-04-18 19:42:00,53.0,38.0,30.23,South,183,0.0,7.0,56,0.00,,,0.00,,2013-04-18 23:42:00,
2013-04-18 19:52:00,53.0,38.0,30.23,South,183,0.0,7.0,56,0.00,,,0.00,,2013-04-18 23:52:00,
2013-04-18 20:01:00,52.0,40.0,30.23,SW,227,2.0,7.0,64,0.00,,,0.00,,2013-04-19 00:01:00,
2013-04-18 20:12:00,52.0,40.0,30.23,SW,227,2.0,7.0,64,0.00,,,0.00,,2013-04-19 00:12:00,
2013-04-18 20:22:00,52.0,41.0,30.23,SSE,167,1.0,8.0,65,0.00,,,0.00,,2013-04-19 00:22:00,
2013-04-18 20:32:00,52.0,41.0,30.22,SSE,168,1.0,6.0,66,0.00,,,0.00,,2013-04-19 00:32:00,
2013-04-18 20:42:00,52.0,41.0,30.22,SSE,168,1.0,6.0,66,0.00,,,0.00,,2013-04-19 00:42:00,
2013-04-18 20:52:00,51.0,40.0,30.21,East,83,0.0,5.0,67,0.00,,,0.00,,2013-04-19 00:52:00,
2013-04-18 21:01:00,51.0,41.0,30.21,South,178,2.0,7.0,68,0.00,,,0.00,,2013-04-19 01:01:00,
2013-04-18 21:11:00,51.0,41.0,30.21,South,178,2.0,7.0,68,0.00,,,0.00,,2013-04-19 01:11:00,
2013-04-18 21:21:00,51.0,41.0,30.21,ENE,65,2.0,8.0,69,0.00,,,0.00,,2013-04-19 01:21:00,
2013-04-18 21:32:00,51.0,42.0,30.20,South,179,0.0,5.0,70,0.00,,,0.00,,2013-04-19 01:32:00,
2013-04-18 21:42:00,51.0,42.0,30.20,South,179,0.0,5.0,70,0.00,,,0.00,,2013-04-19 01:42:00,
2013-04-18 21:52:00,51.0,42.0,30.19,South,186,2.0,8.0,71,0.00,,,0.00,,2013-04-19 01:52:00,
2013-04-18 22:02:00,51.0,42.0,30.19,SSE,166,0.0,7.0,71,0.00,,,0.00,,2013-04-19 02:02:00,
2013-04-18 22:11:00,51.0,42.0,30.19,SSE,166,0.0,7.0,71,0.00,,,0.00,,2013-04-19 02:11:00,
2013-04-18 22:21:00,51.0,42.0,30.18,SSE,168,1.0,8.0,72,0.00,,,0.00,,2013-04-19 02:21:00,
2013-04-18 22:32:00,51.0,43.0,30.18,SSE,167,0.0,6.0,73,0.00,,,0.00,,2013-04-19 02:32:00,
2013-04-18 22:42:00,51.0,43.0,30.18,SSE,167,0.0,6.0,73,0.00,,,0.00,,2013-04-19 02:42:00,
2013-04-18 22:52:00,51.0,43.0,30.17,SSE,164,2.0,8.0,73,0.00,,,0.00,,2013-04-19 02:52:00,
2013-04-18 23:01:00,51.0,43.0,30.16,SSW,203,1.0,6.0,74,0.00,,,0.00,,2013-04-19 03:01:00,
2013-04-18 23:12:00,51.0,43.0,30.16,SSW,203,1.0,6.0,74,0.00,,,0.00,,2013-04-19 03:12:00,
2013-04-18 23:22:00,51.0,43.0,30.16,South,182,0.0,10.0,75,0.00,,,0.00,,2013-04-19 03:22:00,
2013-04-18 23:33:00,51.0,44.0,30.15,SE,133,0.0,4.0,76,0.00,,,0.00,,2013-04-19 03:33:00,
2013-04-18 23:43:00,51.0,44.0,30.15,SE,133,0.0,4.0,76,0.00,,,0.00,,2013-04-19 03:43:00,
2013-04-18 23:53:00,51.0,44.0,30.14,South,191,1.0,5.0,76,0.00,,,0.00,,2013-04-19 03:53:00,